Regional Weather Roundup
Issued by NWS Goodland, KS

Home | Current Version | Previous Version | Graphics & Text | Print | Product List | Glossary On
Versions: 1 2 3 4 5 6 7 8 9 10 11 12 13 14 15 16 17 18 19 20 21 22 23 24 25 26 27 28 29 30 31 32 33 34 35 36 37 38 39 40 41 42 43 44 45 46 47 48 49 50
000
ASUS43 KGLD 261159
RWRGLD

GOODLAND FORECAST AREA HOURLY WEATHER ROUNDUP
NATIONAL WEATHER SERVICE GOODLAND KS
600 AM MDT SUN MAR 26 2017

...OFFICIAL OBSERVATIONS...

CITY           SKY/WX    TMP DP  RH WIND       PRES   REMARKS
GOODLAND KS    FOG       38  38 100 SE7       29.80R VSB 1/4
HILL CITY KS   CLOUDY    40  40 100 E3        29.88R FOG
IMPERIAL NEB   FOG       39  39 100 SE3       29.84R VSB 1/2
MCCOOK NEB     CLOUDY    40  40 100 E5        29.86S FOG
AKRON CO       LGT RAIN  42  32  67 S17G23    29.78S
BURLINGTON CO  FOG       39  39 100 E8        29.80R VSB 1/2
LIMON CO       LGT RAIN  37  35  92 N16       29.75F
$$

...UNOFFICIAL OBSERVATIONS...

CITY           SKY/WX    TMP DP  RH WIND       PRES   REMARKS
LENORA KS        N/A     40  32  73 CALM        N/A
NORTON KS      CLOUDY    39  36  87 NE5       29.85S
SHARON SPRINGS   N/A     38  36  94 E5          N/A
TRENTON NEB      N/A     39  32  76 CALM        N/A
YUMA CO        LGT RAIN  39  37  93 SE7       29.79S
$$




USA.gov is the U.S. government's official web portal to all federal, state and local government web resources and services.